| time (UTC) | temp F | wind direction | speed MPH | gust MPH | rain 1hr in | rain 24hr in | rain mn in | humidity % | barometer mb |
| 20260906151534 | 88 | 309 | 2.0 | 6.0 | 0.00 | 0.00 | 0.00 | 56 | 1020.9 |
| 20260906150529 | 90 | 285 | 2.0 | 6.0 | 0.00 | 0.00 | 0.00 | 54 | 1020.8 |
| 20260906145526 | 90 | 291 | 2.0 | 7.0 | 0.00 | 0.00 | 0.00 | 53 | 1020.8 |
| 20260906144519 | 90 | 230 | 2.0 | 6.0 | 0.00 | 0.00 | 0.00 | 51 | 1020.9 |
| 20260906143534 | 91 | 234 | 1.0 | 3.0 | 0.00 | 0.00 | 0.00 | 48 | 1020.7 |
| 20260906142529 | 90 | 220 | 1.0 | 3.0 | 0.00 | 0.00 | 0.00 | 48 | 1020.9 |
| 20260906141523 | 90 | 315 | 2.0 | 4.0 | 0.00 | 0.00 | 0.00 | 51 | 1020.7 |
| 20260906140518 | 90 | 317 | 3.0 | 7.0 | 0.00 | 0.00 | 0.00 | 49 | 1020.7 |
| 20260906135534 | 91 | 272 | 3.0 | 7.0 | 0.00 | 0.00 | 0.00 | 47 | 1020.7 |
| 20260906134528 | 92 | 216 | 2.0 | 4.0 | 0.00 | 0.00 | 0.00 | 41 | 1020.7 |
| 20260906133542 | 93 | 214 | 2.0 | 8.0 | 0.00 | 0.00 | 0.00 | 41 | 1020.5 |
| 20260906132517 | 92 | 307 | 2.0 | 3.0 | 0.00 | 0.00 | 0.00 | 42 | 1020.7 |
| 20260906131531 | 91 | 313 | 1.0 | 6.0 | 0.00 | 0.00 | 0.00 | 43 | 1020.8 |
| 20260906130606 | 91 | 260 | 2.0 | 3.0 | 0.00 | 0.00 | 0.00 | 43 | 1020.8 |
| 20260906125521 | 91 | 287 | 2.0 | 4.0 | 0.00 | 0.00 | 0.00 | 44 | 1021.0 |
| 20260906124536 | 90 | 258 | 2.0 | 6.0 | 0.00 | 0.00 | 0.00 | 45 | 1021.0 |
| 20260906123531 | 92 | 243 | 1.0 | 2.0 | 0.00 | 0.00 | 0.00 | 44 | 1021.0 |
| 20260906122528 | 89 | 227 | 2.0 | 6.0 | 0.00 | 0.00 | 0.00 | 46 | 1021.1 |
| 20260906121525 | 90 | 200 | 3.0 | 6.0 | 0.00 | 0.00 | 0.00 | 47 | 1021.0 |
| 20260906120517 | 91 | 264 | 1.0 | 3.0 | 0.00 | 0.00 | 0.00 | 46 | 1021.1 |
| 20260906115552 | 90 | 293 | 2.0 | 6.0 | 0.00 | 0.00 | 0.00 | 48 | 1021.2 |
| 20260906114531 | 89 | 359 | 2.0 | 6.0 | 0.00 | 0.00 | 0.00 | 49 | 1021.1 |
| 20260906113521 | 88 | 198 | 2.0 | 6.0 | 0.00 | 0.00 | 0.00 | 50 | 1021.3 |
| 20260906112536 | 89 | 271 | 1.0 | 4.0 | 0.00 | 0.00 | 0.00 | 50 | 1021.2 |
| 20260906111531 | 89 | 222 | 1.0 | 3.0 | 0.00 | 0.00 | 0.00 | 47 | 1021.2 |
| 20260906110525 | 88 | 153 | 2.0 | 4.0 | 0.00 | 0.00 | 0.00 | 48 | 1021.2 |
| 20260906105521 | 88 | 309 | 2.0 | 6.0 | 0.00 | 0.00 | 0.00 | 45 | 1021.3 |
| 20260906104534 | 87 | 224 | 2.0 | 4.0 | 0.00 | 0.00 | 0.00 | 49 | 1021.3 |
| 20260906103611 | 88 | 210 | 1.0 | 4.0 | 0.00 | 0.00 | 0.00 | 46 | 1021.3 |
| 20260906102523 | 88 | 203 | 2.0 | 3.0 | 0.00 | 0.00 | 0.00 | 49 | 1021.3 |
| 20260906101539 | 87 | 281 | 1.0 | 4.0 | 0.00 | 0.00 | 0.00 | 49 | 1021.4 |
| 20260906100533 | 87 | 199 | 2.0 | 4.0 | 0.00 | 0.00 | 0.00 | 51 | 1021.4 |
| 20260906095610 | 87 | 134 | 1.0 | 3.0 | 0.00 | 0.00 | 0.00 | 48 | 1021.4 |
| 20260906094544 | 87 | 354 | 1.0 | 2.0 | 0.00 | 0.00 | 0.00 | 48 | 1021.4 |
| 20260906093517 | 87 | 214 | 1.0 | 2.0 | 0.00 | 0.00 | 0.00 | 45 | 1021.5 |
| 20260906092532 | 85 | 188 | 0.0 | 2.0 | 0.00 | 0.00 | 0.00 | 50 | 1021.5 |
| 20260906091527 | 85 | 132 | 1.0 | 3.0 | 0.00 | 0.00 | 0.00 | 51 | 1021.4 |
| 20260906090522 | 84 | 197 | 2.0 | 4.0 | 0.00 | 0.00 | 0.00 | 53 | 1021.5 |
| 20260906085515 | 84 | 171 | 1.0 | 2.0 | 0.00 | 0.00 | 0.00 | 54 | 1021.4 |
| 20260906084551 | 84 | 188 | 1.0 | 3.0 | 0.00 | 0.00 | 0.00 | 55 | 1021.3 |
| 20260906083525 | 83 | 141 | 1.0 | 2.0 | 0.00 | 0.00 | 0.00 | 56 | 1021.2 |
| 20260906082519 | 83 | 189 | 1.0 | 2.0 | 0.00 | 0.00 | 0.00 | 57 | 1021.2 |
| 20260906081534 | 83 | 154 | 1.0 | 1.0 | 0.00 | 0.00 | 0.00 | 58 | 1021.1 |
| 20260906080528 | 81 | 179 | 0.0 | 2.0 | 0.00 | 0.00 | 0.00 | 60 | 1021.1 |
| 20260906075526 | 81 | 155 | 0.0 | 2.0 | 0.00 | 0.00 | 0.00 | 61 | 1021.0 |
| 20260906074518 | 80 | 161 | 0.0 | 1.0 | 0.00 | 0.00 | 0.00 | 64 | 1020.9 |
| 20260906073633 | 77 | 193 | 0.0 | 2.0 | 0.00 | 0.00 | 0.00 | 69 | 1020.8 |
| 20260906072526 | 75 | 161 | 0.0 | 1.0 | 0.00 | 0.00 | 0.00 | 72 | 1020.8 |
| 20260906071542 | 74 | 141 | 0.0 | 1.0 | 0.00 | 0.00 | 0.00 | 72 | 1020.6 |
| 20260906070536 | 74 | 148 | 0.0 | 1.0 | 0.00 | 0.00 | 0.00 | 73 | 1020.8 |
| 20260906065531 | 73 | 228 | 0.0 | 1.0 | 0.00 | 0.00 | 0.00 | 74 | 1020.7 |
| 20260906064526 | 72 | 167 | 0.0 | 1.0 | 0.00 | 0.00 | 0.00 | 76 | 1020.6 |
| 20260906063521 | 71 | 171 | 0.0 | 1.0 | 0.00 | 0.00 | 0.00 | 75 | 1020.5 |
| 20260906062536 | 71 | 0.0 | 0.0 | 0.00 | 0.00 | 0.00 | 81 | 1020.6 | |
| 20260906061530 | 70 | 0.0 | 0.0 | 0.00 | 0.00 | 0.00 | 83 | 1020.6 | |
| 20260906060524 | 69 | 0.0 | 0.0 | 0.00 | 0.00 | 0.00 | 84 | 1020.4 | |
| 20260906055518 | 69 | 0.0 | 0.0 | 0.00 | 0.00 | 0.00 | 85 | 1020.4 | |
| 20260906054533 | 69 | 0.0 | 0.0 | 0.00 | 0.00 | 0.00 | 86 | 1020.3 | |
| 20260906053528 | 69 | 0.0 | 0.0 | 0.00 | 0.00 | 0.00 | 87 | 1020.3 | |
| 20260906052542 | 68 | 0.0 | 0.0 | 0.00 | 0.00 | 0.00 | 88 | 1020.0 | |
| 20260906051518 | 68 | 0.0 | 0.0 | 0.00 | 0.00 | 0.00 | 88 | 1020.2 | |
| 20260906050532 | 68 | 0.0 | 0.0 | 0.00 | 0.00 | 0.00 | 88 | 1020.2 | |
| 20260906045527 | 68 | 58 | 0.0 | 1.0 | 0.00 | 0.00 | 0.00 | 89 | 1020.1 |
| 20260906044521 | 68 | 0.0 | 0.0 | 0.00 | 0.00 | 0.00 | 88 | 1020.1 | |
| 20260906043536 | 69 | 0.0 | 0.0 | 0.00 | 0.00 | 0.00 | 87 | 1020.0 | |
| 20260906042531 | 69 | 0.0 | 0.0 | 0.00 | 0.00 | 0.00 | 88 | 1020.1 | |
| 20260906041525 | 69 | 0.0 | 0.0 | 0.00 | 0.00 | 0.00 | 88 | 1020.0 | |
| 20260906040540 | 69 | 0.0 | 0.0 | 0.00 | 0.00 | 0.00 | 87 | 1020.0 | |
| 20260906035534 | 68 | 57 | 0.0 | 1.0 | 0.00 | 0.00 | 0.00 | 88 | 1019.9 |
| 20260906034529 | 68 | 0.0 | 0.0 | 0.00 | 0.00 | 0.00 | 87 | 1019.7 | |
| 20260906033523 | 69 | 84 | 0.0 | 1.0 | 0.00 | 0.00 | 0.00 | 86 | 1019.7 |
| 20260906032518 | 69 | 43 | 0.0 | 1.0 | 0.00 | 0.00 | 0.00 | 86 | 1019.8 |
| 20260906031534 | 68 | 0.0 | 0.0 | 0.00 | 0.00 | 0.00 | 87 | 1019.8 | |
| 20260906030529 | 68 | 0.0 | 0.0 | 0.00 | 0.00 | 0.00 | 87 | 1019.8 | |
| 20260906025523 | 69 | 0.0 | 0.0 | 0.00 | 0.00 | 0.00 | 85 | 1019.9 | |
| 20260906024516 | 69 | 49 | 0.0 | 1.0 | 0.00 | 0.00 | 0.00 | 86 | 1020.0 |
| 20260906023532 | 70 | 20 | 0.0 | 1.0 | 0.00 | 0.00 | 0.00 | 86 | 1020.0 |
| 20260906022546 | 70 | 33 | 0.0 | 1.0 | 0.00 | 0.00 | 0.00 | 87 | 1020.0 |
| 20260906021520 | 70 | 51 | 0.0 | 1.0 | 0.00 | 0.00 | 0.00 | 87 | 1020.0 |
| 20260906020534 | 70 | 0.0 | 0.0 | 0.00 | 0.00 | 0.00 | 85 | 1019.8 | |
| 20260906015529 | 70 | 43 | 0.0 | 1.0 | 0.00 | 0.00 | 0.00 | 86 | 1019.9 |
| 20260906014523 | 70 | 0.0 | 0.0 | 0.00 | 0.00 | 0.00 | 85 | 1019.8 | |
| 20260906013519 | 71 | 0.0 | 0.0 | 0.00 | 0.00 | 0.00 | 83 | 1019.9 | |
| 20260906012553 | 72 | 354 | 0.0 | 2.0 | 0.00 | 0.00 | 0.00 | 83 | 1020.0 |
| 20260906011527 | 71 | 22 | 0.0 | 2.0 | 0.00 | 0.00 | 0.00 | 82 | 1020.1 |
| 20260906010522 | 71 | 0.0 | 0.0 | 0.00 | 0.00 | 0.00 | 81 | 1020.1 | |
| 20260906005517 | 70 | 0.0 | 0.0 | 0.00 | 0.00 | 0.00 | 83 | 1019.9 | |
| 20260906004532 | 70 | 0.0 | 0.0 | 0.00 | 0.00 | 0.00 | 83 | 1019.9 | |
| 20260906003526 | 71 | 0.0 | 0.0 | 0.00 | 0.00 | 0.00 | 81 | 1020.0 | |
| 20260906002521 | 71 | 0.0 | 0.0 | 0.00 | 0.00 | 0.00 | 82 | 1020.1 | |
| 20260906001535 | 72 | 0.0 | 0.0 | 0.00 | 0.00 | 0.00 | 80 | 1020.1 | |
| 20260906000529 | 73 | 147 | 0.0 | 1.0 | 0.00 | 0.00 | 0.00 | 78 | 1020.2 |
| 20260905235524 | 73 | 18 | 1.0 | 3.0 | 0.00 | 0.00 | 0.00 | 77 | 1020.3 |
| 20260905234542 | 74 | 65 | 0.0 | 1.0 | 0.00 | 0.00 | 0.00 | 77 | 1020.3 |
| 20260905233534 | 74 | 357 | 1.0 | 3.0 | 0.00 | 0.00 | 0.00 | 77 | 1020.3 |
| 20260905232529 | 74 | 358 | 1.0 | 3.0 | 0.00 | 0.00 | 0.00 | 77 | 1020.3 |
| 20260905231526 | 74 | 8 | 1.0 | 3.0 | 0.00 | 0.00 | 0.00 | 76 | 1020.2 |
| 20260905230519 | 74 | 348 | 2.0 | 4.0 | 0.00 | 0.00 | 0.00 | 76 | 1020.1 |
| 20260905225533 | 74 | 337 | 1.0 | 2.0 | 0.00 | 0.00 | 0.00 | 76 | 1020.3 |
| 20260905224528 | 74 | 357 | 2.0 | 3.0 | 0.00 | 0.00 | 0.00 | 76 | 1020.4 |
| 20260905223524 | 74 | 357 | 2.0 | 3.0 | 0.00 | 0.00 | 0.00 | 75 | 1020.3 |
| 20260905222516 | 74 | 349 | 1.0 | 4.0 | 0.00 | 0.00 | 0.00 | 75 | 1020.4 |
| 20260905221532 | 74 | 353 | 1.0 | 3.0 | 0.00 | 0.00 | 0.00 | 74 | 1020.3 |
| 20260905220527 | 74 | 353 | 2.0 | 3.0 | 0.00 | 0.00 | 0.00 | 74 | 1020.3 |
| 20260905215522 | 75 | 28 | 1.0 | 3.0 | 0.00 | 0.00 | 0.00 | 73 | 1020.3 |
| 20260905214518 | 75 | 350 | 2.0 | 6.0 | 0.00 | 0.00 | 0.00 | 74 | 1020.1 |
| 20260905213552 | 74 | 356 | 2.0 | 4.0 | 0.00 | 0.00 | 0.00 | 74 | 1020.2 |
| 20260905212525 | 74 | 7 | 0.0 | 2.0 | 0.00 | 0.00 | 0.00 | 75 | 1020.2 |
| 20260905211519 | 74 | 150 | 0.0 | 1.0 | 0.00 | 0.00 | 0.00 | 76 | 1020.2 |
| 20260905205529 | 74 | 85 | 0.0 | 2.0 | 0.00 | 0.00 | 0.00 | 77 | 1020.1 |
| 20260905204526 | 74 | 21 | 2.0 | 6.0 | 0.00 | 0.00 | 0.00 | 78 | 1020.0 |
| 20260905203518 | 74 | 266 | 1.0 | 3.0 | 0.00 | 0.00 | 0.00 | 77 | 1020.0 |
| 20260905202533 | 75 | 355 | 2.0 | 4.0 | 0.00 | 0.00 | 0.00 | 76 | 1020.1 |
| 20260905201527 | 75 | 345 | 2.0 | 6.0 | 0.00 | 0.00 | 0.00 | 75 | 1020.2 |
| 20260905200522 | 75 | 321 | 1.0 | 3.0 | 0.00 | 0.00 | 0.00 | 75 | 1020.1 |
| 20260905195517 | 75 | 339 | 3.0 | 6.0 | 0.00 | 0.00 | 0.00 | 74 | 1020.3 |
| 20260905194531 | 75 | 271 | 2.0 | 4.0 | 0.00 | 0.00 | 0.00 | 73 | 1020.0 |
| 20260905193526 | 76 | 359 | 2.0 | 9.0 | 0.00 | 0.00 | 0.00 | 72 | 1020.1 |
| 20260905192540 | 76 | 343 | 1.0 | 4.0 | 0.00 | 0.00 | 0.00 | 71 | 1019.9 |
| 20260905191534 | 76 | 348 | 2.0 | 7.0 | 0.00 | 0.00 | 0.00 | 71 | 1019.8 |
| 20260905190529 | 77 | 343 | 2.0 | 7.0 | 0.00 | 0.00 | 0.00 | 69 | 1019.9 |
| 20260905185543 | 77 | 343 | 3.0 | 9.0 | 0.00 | 0.00 | 0.00 | 64 | 1019.8 |
| 20260905184517 | 78 | 348 | 3.0 | 7.0 | 0.00 | 0.00 | 0.00 | 63 | 1019.6 |
| 20260905183532 | 78 | 355 | 2.0 | 8.0 | 0.00 | 0.00 | 0.00 | 62 | 1019.5 |
| 20260905182646 | 79 | 359 | 3.0 | 8.0 | 0.00 | 0.00 | 0.00 | 62 | 1019.5 |
| 20260905181541 | 79 | 350 | 2.0 | 8.0 | 0.00 | 0.00 | 0.00 | 60 | 1019.5 |
| 20260905180516 | 80 | 345 | 1.0 | 3.0 | 0.00 | 0.00 | 0.00 | 55 | 1019.4 |
| 20260905175531 | 81 | 359 | 2.0 | 4.0 | 0.00 | 0.00 | 0.00 | 52 | 1019.3 |
| 20260905174526 | 81 | 347 | 3.0 | 6.0 | 0.00 | 0.00 | 0.00 | 50 | 1019.3 |
| 20260905173520 | 82 | 343 | 3.0 | 7.0 | 0.00 | 0.00 | 0.00 | 50 | 1019.1 |
| 20260905172535 | 82 | 348 | 2.0 | 6.0 | 0.00 | 0.00 | 0.00 | 50 | 1019.1 |
| 20260905171549 | 83 | 358 | 1.0 | 4.0 | 0.00 | 0.00 | 0.00 | 50 | 1019.1 |
| 20260905170524 | 83 | 18 | 2.0 | 4.0 | 0.00 | 0.00 | 0.00 | 49 | 1019.0 |
| 20260905165518 | 84 | 9 | 2.0 | 6.0 | 0.00 | 0.00 | 0.00 | 49 | 1019.1 |
| 20260905164535 | 85 | 311 | 2.0 | 7.0 | 0.00 | 0.00 | 0.00 | 47 | 1019.0 |
| 20260905163526 | 86 | 342 | 1.0 | 3.0 | 0.00 | 0.00 | 0.00 | 45 | 1019.1 |
| 20260905162521 | 87 | 285 | 1.0 | 6.0 | 0.00 | 0.00 | 0.00 | 41 | 1018.9 |
| 20260905161517 | 88 | 234 | 1.0 | 6.0 | 0.00 | 0.00 | 0.00 | 39 | 1019.0 |
| 20260905160533 | 88 | 216 | 1.0 | 3.0 | 0.00 | 0.00 | 0.00 | 41 | 1019.0 |
| 20260905155527 | 88 | 263 | 1.0 | 6.0 | 0.00 | 0.00 | 0.00 | 43 | 1019.0 |
| 20260905154521 | 89 | 344 | 2.0 | 7.0 | 0.00 | 0.00 | 0.00 | 44 | 1019.2 |
| 20260905153516 | 89 | 235 | 1.0 | 4.0 | 0.00 | 0.00 | 0.00 | 43 | 1019.1 |
| 20260905152531 | 88 | 256 | 1.0 | 6.0 | 0.00 | 0.00 | 0.00 | 46 | 1019.1 |